Tracking 33068 objects as of 24-Jan-2026
HD Live streaming from Space Station
objects crossing your sky now

STARLINK-4021

Track STARLINK-4021 now!
10-day predictions
STARLINK-4021 is classified as:


NORAD ID: 53149
Int'l Code: 2022-083T
Perigee: 545.8 km
Apogee: 547.8 km
Inclination: 53.2 °
Period: 95.4 minutes
Semi major axis: 6917 km
RCS: Unknown
Launch date: July 17, 2022
Source: United States (US)
Launch site: AIR FORCE EASTERN TEST RANGE (AFETR)
Your satellite tracking list
Your tracking list is empty




NASA's NSSDC Master Catalog

Two Line Element Set (TLE):
1 53149U 22083T   26024.21108183  .00010152  00000-0  65463-3 0  9991
2 53149  53.2174   3.9944 0001454  91.1815 268.9344 15.08863142194642
Source of the keplerian elements: AFSPC